| time (UTC) | temp F | wind direction | speed MPH | gust MPH | rain 1hr in | rain 24hr in | rain mn in | humidity % | barometer mb |
| 20260903144909 | 59 | 166 | 2.0 | 6.0 | 0.09 | 0.29 | 0.08 | 86 | 1013.8 |
| 20260903143809 | 59 | 191 | 2.0 | 8.0 | 0.08 | 0.27 | 0.06 | 86 | 1013.8 |
| 20260903142709 | 59 | 205 | 2.0 | 5.0 | 0.09 | 0.24 | 0.03 | 86 | 1013.7 |
| 20260903141609 | 59 | 205 | 2.0 | 4.0 | 0.12 | 0.23 | 0.02 | 86 | 1013.7 |
| 20260903140509 | 59 | 198 | 2.0 | 4.0 | 0.13 | 0.22 | 0.01 | 86 | 1013.6 |
| 20260903135409 | 59 | 168 | 2.0 | 5.0 | 0.12 | 0.21 | 0.20 | 86 | 1013.6 |
| 20260903134309 | 59 | 278 | 2.0 | 4.0 | 0.15 | 0.21 | 0.20 | 86 | 1013.5 |
| 20260903133209 | 59 | 225 | 2.0 | 4.0 | 0.15 | 0.22 | 0.18 | 86 | 1013.6 |
| 20260903131917 | 59 | 166 | 2.0 | 5.0 | 0.10 | 0.20 | 0.12 | 86 | 1013.6 |
| 20260903130818 | 59 | 183 | 2.0 | 4.0 | 0.08 | 0.22 | 0.09 | 86 | 1013.6 |
| 20260903125717 | 59 | 186 | 1.0 | 2.0 | 0.08 | 0.23 | 0.08 | 86 | 1013.7 |
| 20260903124618 | 59 | 188 | 1.0 | 3.0 | 0.06 | 0.24 | 0.06 | 86 | 1013.9 |
| 20260903123518 | 59 | 212 | 1.0 | 2.0 | 0.04 | 0.26 | 0.04 | 86 | 1013.9 |
| 20260903122226 | 59 | 180 | 0.0 | 2.0 | 0.02 | 0.25 | 0.02 | 86 | 1014.1 |
| 20260903121126 | 59 | 180 | 0.0 | 3.0 | 0.01 | 0.27 | 0.01 | 86 | 1014.2 |
| 20260903120026 | 59 | 235 | 1.0 | 3.0 | 0.00 | 0.30 | 0.00 | 86 | 1014.2 |
| 20260903114735 | 59 | 208 | 1.0 | 3.0 | 0.00 | 0.36 | 0.00 | 86 | 1014.2 |
| 20260903113635 | 59 | 228 | 2.0 | 2.0 | 0.00 | 0.39 | 0.00 | 86 | 1014.3 |
| 20260903112535 | 59 | 202 | 1.0 | 2.0 | 0.00 | 0.40 | 0.00 | 86 | 1014.4 |
| 20260903111435 | 59 | 186 | 1.0 | 2.0 | 0.00 | 0.42 | 0.00 | 86 | 1014.5 |
| 20260903110335 | 59 | 200 | 1.0 | 2.0 | 0.00 | 0.42 | 0.00 | 86 | 1014.6 |
| 20260903105235 | 59 | 190 | 1.0 | 2.0 | 0.00 | 0.42 | 0.00 | 86 | 1014.7 |
| 20260903103944 | 59 | 183 | 1.0 | 2.0 | 0.00 | 0.43 | 0.00 | 86 | 1014.7 |
| 20260903102843 | 59 | 186 | 1.0 | 2.0 | 0.00 | 0.44 | 0.00 | 86 | 1014.7 |
| 20260903101744 | 59 | 176 | 2.0 | 4.0 | 0.00 | 0.44 | 0.00 | 86 | 1014.8 |
| 20260903100452 | 58 | 208 | 0.0 | 2.0 | 0.00 | 0.44 | 0.00 | 86 | 1014.8 |
| 20260903095352 | 58 | 196 | 1.0 | 2.0 | 0.00 | 0.44 | 0.00 | 86 | 1014.9 |
| 20260903094253 | 58 | 206 | 1.0 | 2.0 | 0.00 | 0.44 | 0.00 | 86 | 1014.9 |
| 20260903093152 | 58 | 202 | 1.0 | 2.0 | 0.00 | 0.44 | 0.00 | 86 | 1015.0 |
| 20260903092052 | 58 | 212 | 1.0 | 3.0 | 0.00 | 0.44 | 0.00 | 86 | 1015.2 |
| 20260903090801 | 58 | 202 | 1.0 | 3.0 | 0.00 | 0.44 | 0.00 | 86 | 1015.4 |
| 20260903085701 | 58 | 202 | 1.0 | 2.0 | 0.00 | 0.44 | 0.00 | 86 | 1015.4 |
| 20260903084601 | 58 | 180 | 2.0 | 2.0 | 0.00 | 0.44 | 0.00 | 86 | 1015.5 |
| 20260903083309 | 58 | 228 | 1.0 | 4.0 | 0.00 | 0.44 | 0.00 | 86 | 1015.5 |
| 20260903082209 | 58 | 202 | 1.0 | 2.0 | 0.00 | 0.44 | 0.00 | 86 | 1015.6 |
| 20260903081109 | 58 | 225 | 1.0 | 2.0 | 0.00 | 0.44 | 0.00 | 86 | 1015.6 |
| 20260903080010 | 58 | 90 | 0.0 | 1.0 | 0.00 | 0.44 | 0.00 | 85 | 1015.6 |
| 20260903074910 | 58 | 214 | 0.0 | 2.0 | 0.00 | 0.44 | 0.00 | 85 | 1015.6 |
| 20260903073810 | 58 | 215 | 1.0 | 3.0 | 0.00 | 0.44 | 0.00 | 85 | 1015.7 |
| 20260903072518 | 58 | 231 | 1.0 | 2.0 | 0.00 | 0.44 | 0.00 | 85 | 1015.7 |
| 20260903071418 | 57 | 264 | 1.0 | 4.0 | 0.00 | 0.44 | 0.00 | 85 | 1015.8 |
| 20260903070318 | 58 | 248 | 2.0 | 3.0 | 0.00 | 0.44 | 0.00 | 85 | 1015.8 |
| 20260903065220 | 58 | 253 | 2.0 | 4.0 | 0.00 | 0.44 | 0.00 | 85 | 1015.9 |
| 20260903064118 | 57 | 235 | 1.0 | 2.0 | 0.00 | 0.44 | 0.00 | 85 | 1015.9 |
| 20260903062827 | 57 | 208 | 1.0 | 3.0 | 0.00 | 0.44 | 0.00 | 85 | 1016.0 |
| 20260903061727 | 57 | 231 | 2.0 | 3.0 | 0.00 | 0.44 | 0.00 | 85 | 1016.0 |
| 20260903060627 | 57 | 225 | 1.0 | 2.0 | 0.00 | 0.44 | 0.00 | 85 | 1016.1 |
| 20260903055527 | 57 | 225 | 1.0 | 2.0 | 0.00 | 0.44 | 0.00 | 85 | 1016.1 |
| 20260903054427 | 57 | 202 | 1.0 | 2.0 | 0.00 | 0.44 | 0.00 | 85 | 1016.1 |
| 20260903053327 | 57 | 231 | 2.0 | 4.0 | 0.00 | 0.44 | 0.00 | 85 | 1016.1 |
| 20260903052227 | 57 | 225 | 1.0 | 3.0 | 0.00 | 0.44 | 0.00 | 84 | 1016.2 |
| 20260903051127 | 57 | 235 | 2.0 | 3.0 | 0.00 | 0.44 | 0.00 | 84 | 1016.3 |
| 20260903050027 | 57 | 244 | 2.0 | 2.0 | 0.00 | 0.44 | 0.00 | 84 | 1016.4 |
| 20260903044734 | 57 | 238 | 2.0 | 3.0 | 0.00 | 0.44 | 0.00 | 84 | 1016.4 |
| 20260903043443 | 57 | 248 | 1.0 | 4.0 | 0.00 | 0.44 | 0.00 | 84 | 1016.4 |
| 20260903042343 | 57 | 248 | 2.0 | 4.0 | 0.00 | 0.44 | 0.00 | 84 | 1016.3 |
| 20260903041243 | 58 | 225 | 2.0 | 3.0 | 0.00 | 0.44 | 0.00 | 84 | 1016.3 |
| 20260903040143 | 58 | 232 | 2.0 | 4.0 | 0.00 | 0.44 | 0.00 | 84 | 1016.2 |
| 20260903035043 | 58 | 248 | 1.0 | 3.0 | 0.00 | 0.44 | 0.00 | 84 | 1016.2 |
| 20260903033943 | 58 | 251 | 2.0 | 4.0 | 0.00 | 0.44 | 0.00 | 84 | 1016.1 |
| 20260903032651 | 58 | 255 | 2.0 | 3.0 | 0.00 | 0.44 | 0.00 | 84 | 1016.0 |
| 20260903031552 | 58 | 208 | 2.0 | 3.0 | 0.00 | 0.44 | 0.00 | 84 | 1015.8 |
| 20260903030454 | 58 | 225 | 1.0 | 4.0 | 0.00 | 0.44 | 0.00 | 84 | 1015.7 |
| 20260903025351 | 58 | 250 | 2.0 | 3.0 | 0.00 | 0.44 | 0.00 | 83 | 1015.8 |
| 20260903024251 | 59 | 253 | 2.0 | 5.0 | 0.00 | 0.44 | 0.00 | 83 | 1015.9 |
| 20260903023152 | 59 | 231 | 1.0 | 4.0 | 0.00 | 0.44 | 0.00 | 83 | 1016.0 |
| 20260903022051 | 59 | 240 | 2.0 | 6.0 | 0.00 | 0.44 | 0.00 | 83 | 1016.0 |
| 20260903020801 | 59 | 192 | 1.0 | 3.0 | 0.00 | 0.44 | 0.00 | 83 | 1016.0 |
| 20260903015700 | 59 | 211 | 2.0 | 3.0 | 0.00 | 0.44 | 0.00 | 82 | 1016.1 |
| 20260903014600 | 60 | 255 | 2.0 | 3.0 | 0.00 | 0.44 | 0.00 | 82 | 1016.2 |
| 20260903013500 | 60 | 240 | 2.0 | 4.0 | 0.00 | 0.44 | 0.00 | 82 | 1016.2 |
| 20260903012400 | 60 | 202 | 2.0 | 4.0 | 0.00 | 0.44 | 0.00 | 81 | 1016.2 |
| 20260903011300 | 60 | 248 | 2.0 | 4.0 | 0.00 | 0.44 | 0.00 | 80 | 1016.3 |
| 20260903010009 | 60 | 218 | 2.0 | 5.0 | 0.00 | 0.44 | 0.00 | 80 | 1016.4 |
| 20260903004718 | 61 | 225 | 3.0 | 7.0 | 0.00 | 0.44 | 0.00 | 79 | 1016.3 |
| 20260903003618 | 61 | 228 | 3.0 | 5.0 | 0.00 | 0.44 | 0.00 | 79 | 1016.2 |
| 20260903002518 | 62 | 292 | 2.0 | 4.0 | 0.00 | 0.44 | 0.00 | 79 | 1016.3 |
| 20260903001419 | 62 | 202 | 2.0 | 6.0 | 0.00 | 0.44 | 0.00 | 79 | 1016.3 |
| 20260903000318 | 62 | 239 | 3.0 | 4.0 | 0.00 | 0.44 | 0.00 | 79 | 1016.4 |
| 20260902235027 | 63 | 202 | 3.0 | 4.0 | 0.00 | 0.44 | 0.00 | 78 | 1016.5 |
| 20260902233926 | 63 | 248 | 3.0 | 6.0 | 0.00 | 0.44 | 0.00 | 77 | 1016.5 |
| 20260902232826 | 64 | 228 | 3.0 | 6.0 | 0.00 | 0.44 | 0.00 | 76 | 1016.6 |
| 20260902231726 | 64 | 193 | 3.0 | 7.0 | 0.00 | 0.44 | 0.00 | 74 | 1016.7 |
| 20260902230435 | 64 | 236 | 2.0 | 5.0 | 0.00 | 0.44 | 0.00 | 75 | 1016.8 |
| 20260902225335 | 65 | 186 | 2.0 | 6.0 | 0.00 | 0.44 | 0.00 | 73 | 1016.9 |
| 20260902224235 | 65 | 228 | 3.0 | 5.0 | 0.00 | 0.44 | 0.00 | 74 | 1017.0 |
| 20260902223135 | 65 | 292 | 3.0 | 6.0 | 0.00 | 0.44 | 0.00 | 74 | 1017.1 |
| 20260902222037 | 66 | 236 | 2.0 | 4.0 | 0.00 | 0.44 | 0.00 | 74 | 1017.1 |
| 20260902220935 | 65 | 192 | 3.0 | 6.0 | 0.00 | 0.44 | 0.00 | 74 | 1017.1 |
| 20260902215835 | 66 | 214 | 3.0 | 6.0 | 0.00 | 0.44 | 0.00 | 74 | 1017.2 |
| 20260902214735 | 65 | 222 | 3.0 | 5.0 | 0.00 | 0.44 | 0.00 | 73 | 1017.2 |
| 20260902213635 | 65 | 219 | 4.0 | 10.0 | 0.00 | 0.44 | 0.00 | 75 | 1017.2 |
| 20260902212535 | 64 | 248 | 3.0 | 6.0 | 0.00 | 0.44 | 0.00 | 76 | 1017.2 |
| 20260902211244 | 64 | 260 | 3.0 | 4.0 | 0.00 | 0.44 | 0.00 | 76 | 1017.2 |
| 20260902210144 | 64 | 208 | 2.0 | 4.0 | 0.00 | 0.44 | 0.00 | 78 | 1017.2 |
| 20260902205044 | 64 | 325 | 2.0 | 5.0 | 0.00 | 0.44 | 0.00 | 75 | 1017.2 |
| 20260902203753 | 64 | 233 | 3.0 | 5.0 | 0.00 | 0.44 | 0.00 | 75 | 1017.3 |
| 20260902202653 | 63 | 270 | 1.0 | 4.0 | 0.00 | 0.44 | 0.00 | 78 | 1017.3 |
| 20260902201553 | 63 | 241 | 2.0 | 6.0 | 0.00 | 0.44 | 0.00 | 78 | 1017.4 |
| 20260902200302 | 62 | 259 | 2.0 | 6.0 | 0.00 | 0.44 | 0.00 | 79 | 1017.3 |
| 20260902195201 | 61 | 270 | 2.0 | 4.0 | 0.00 | 0.44 | 0.00 | 81 | 1017.5 |
| 20260902194102 | 61 | 164 | 2.0 | 4.0 | 0.00 | 0.44 | 0.00 | 81 | 1017.6 |
| 20260902193002 | 60 | 202 | 1.0 | 4.0 | 0.00 | 0.44 | 0.00 | 83 | 1017.5 |
| 20260902191901 | 60 | 238 | 2.0 | 4.0 | 0.00 | 0.44 | 0.00 | 83 | 1017.6 |
| 20260902190802 | 60 | 196 | 3.0 | 6.0 | 0.00 | 0.44 | 0.00 | 81 | 1017.7 |
| 20260902185702 | 60 | 253 | 1.0 | 6.0 | 0.00 | 0.44 | 0.00 | 83 | 1017.7 |
| 20260902184601 | 59 | 197 | 3.0 | 6.0 | 0.00 | 0.44 | 0.00 | 83 | 1017.7 |
| 20260902183311 | 60 | 219 | 1.0 | 5.0 | 0.00 | 0.44 | 0.00 | 84 | 1017.7 |
| 20260902182019 | 59 | 295 | 0.0 | 3.0 | 0.00 | 0.44 | 0.00 | 85 | 1017.6 |
| 20260902180919 | 59 | 272 | 2.0 | 3.0 | 0.00 | 0.44 | 0.00 | 85 | 1017.5 |
| 20260902175819 | 59 | 206 | 2.0 | 3.0 | 0.00 | 0.44 | 0.00 | 85 | 1017.3 |
| 20260902174719 | 58 | 151 | 1.0 | 3.0 | 0.00 | 0.44 | 0.00 | 85 | 1017.3 |
| 20260902173619 | 58 | 231 | 2.0 | 4.0 | 0.00 | 0.44 | 0.00 | 86 | 1017.1 |
| 20260902172519 | 58 | 264 | 2.0 | 3.0 | 0.00 | 0.44 | 0.00 | 85 | 1017.1 |
| 20260902171419 | 59 | 225 | 3.0 | 4.0 | 0.00 | 0.44 | 0.00 | 85 | 1016.9 |
| 20260902170319 | 59 | 180 | 1.0 | 2.0 | 0.00 | 0.44 | 0.00 | 86 | 1016.8 |
| 20260902165219 | 59 | 167 | 1.0 | 3.0 | 0.00 | 0.44 | 0.00 | 85 | 1016.7 |
| 20260902164119 | 58 | 252 | 1.0 | 3.0 | 0.00 | 0.44 | 0.00 | 85 | 1016.5 |
| 20260902162635 | 58 | 188 | 0.0 | 3.0 | 0.00 | 0.44 | 0.00 | 85 | 1016.3 |
| 20260902161535 | 58 | 281 | 2.0 | 3.0 | 0.00 | 0.44 | 0.00 | 85 | 1016.3 |
| 20260902160435 | 58 | 214 | 2.0 | 3.0 | 0.00 | 0.44 | 0.00 | 85 | 1016.3 |
| 20260902155335 | 58 | 219 | 2.0 | 3.0 | 0.00 | 0.44 | 0.00 | 85 | 1016.2 |
| 20260902154235 | 58 | 202 | 1.0 | 3.0 | 0.00 | 0.44 | 0.00 | 85 | 1016.3 |
| 20260902153136 | 58 | 65 | 1.0 | 2.0 | 0.00 | 0.44 | 0.00 | 85 | 1016.3 |
| 20260902152035 | 58 | 180 | 0.0 | 2.0 | 0.00 | 0.44 | 0.00 | 85 | 1016.2 |
| 20260902150744 | 58 | 217 | 1.0 | 2.0 | 0.00 | 0.44 | 0.00 | 85 | 1016.1 |